Regional Weather Roundup
Issued by NWS

Home | Current Version | Previous Version | Text Only | Print | Product List | Glossary On
Versions: 1 2 3 4 5 6 7 8 9 10 11 12 13 14 15 16 17 18 19 20 21 22 23 24 25 26 27 28 29 30 31 32 33 34 35 36 37 38 39 40 41 42 43 44 45 46 47 48 49 50
000
ASUS45 KCYS 302010
RWRWY

WYOMING REGIONAL WEATHER ROUNDUP
NATIONAL WEATHER SERVICE CHEYENNE WY
200 PM MDT MON MAR 30 2015

NOTE:  "FAIR" INDICATES FEW OR NO CLOUDS BELOW 12,000 FEET
WITH NO SIGNIFICANT WEATHER AND/OR OBSTRUCTIONS TO VISIBILITY.

WYZ001-302100-
YELLOWSTONE NATIONAL PARK

CITY           SKY/WX    TMP DP  RH WIND       PRES   REMARKS
LK YELLOWSTONE   N/A     50  16  25 NW8       30.26F
W YELLOWSTONE  NOT AVBL

$$
WYZ002>013-054>058-071-098>099-302100-
NORTHERN WYOMING

CITY           SKY/WX    TMP DP  RH WIND       PRES   REMARKS
JACKSON        SUNNY     57  21  24 S9        30.24F
CODY           FAIR      64  19  17 W12G21    30.11S
GREYBULL       FAIR      65  20  17 NW7       30.08F
WORLAND        FAIR      64  20  18 VRB3      30.10F
SHERIDAN       FAIR      66  30  26 N10G22    30.08F
BUFFALO        FAIR      61  28  28 MISG      30.12F
GILLETTE       FAIR      63  28  26 NW12G18   30.11F
HULETT         FAIR      61  28  29 NW13      30.10F
NEWCASTLE      FAIR      63  25  23 NW20      30.10F

$$
WYZ014>020-022>026-101>103-302100-
CENTRAL WYOMING

CITY           SKY/WX    TMP DP  RH WIND       PRES   REMARKS
BIG PINEY      FAIR      61  10  13 N7G20     30.25F
PINEDALE       FAIR      55  21  26 NW14G20   30.27F
DUBOIS         FAIR      55  12  18 W29       30.20F
LANDER         FAIR      64  20  18 W5        30.13F
RIVERTON       FAIR      63  19  18 CALM      30.14F
CASPER         FAIR      64  19  17 NW9       30.14F
DOUGLAS        FAIR      64  20  18 W5        30.13F

$$
WYZ021-027>030-104>119-302100-
SOUTHERN WYOMING

CITY           SKY/WX    TMP DP  RH WIND       PRES   REMARKS
EVANSTON       FAIR      63  12  13 W16       30.28F
KEMMERER       FAIR      59  12  15 W14G20    30.29F
FORT BRIDGER   FAIR      64   9  12 NW10G20   30.30F
ROCK SPRINGS   FAIR      61  13  15 W15G24    30.25F
DIXON          FAIR      62  18  17 W6G17     30.26F
RAWLINS        FAIR      61  17  18 W16       30.20F
SARATOGA       FAIR      61  19  20 W18G26    30.23F
LARAMIE        FAIR      61  17  18 W22G30    30.20F
CHEYENNE       FAIR      64  18  17 NW15      30.15F
TORRINGTON     FAIR      70  21  15 NW13G18   30.10F
PINE BLUFFS    FAIR      64  18  16 NW16G22   30.14F

$$



USA.gov is the U.S. government's official web portal to all federal, state and local government web resources and services.